Weather Roundup
Issued by NWS Sterling, VA

Home | Current Version | Previous Version | Text Only | Print | Product List | Glossary On
Versions: 1 2 3 4 5 6 7 8 9 10 11 12 13 14 15 16 17 18 19 20 21 22 23 24 25 26 27 28 29 30 31 32 33 34 35 36 37 38 39 40 41 42 43 44 45 46 47 48 49 50
000
NZUS51 KLWX 150911
HRRLWX

HOURLY OBSERVATIONS AROUND THE LWX CWA
500 AM EDT WED AUG 15 2018

Note: "FAIR" indicates few or no clouds below 12,000 feet
with no significant weather and/or obstructions to visibility.

 * =Non NWS site. Station does not report significant weather
    and/or obstructions to visibility.

...DOWNTOWN AREAS...

CITY           SKY/WX    TMP DP  RH WIND       PRES   REMARKS
WASHINGTON NAT FAIR      74  65  73 CALM      29.97S
MD SCIENCE CTR   N/A     73  66  78 MISG      29.95R


...WASHINGTON SUBURBS...

CITY           SKY/WX    TMP DP  RH WIND       PRES   REMARKS
DULLES         FAIR      66  65  96 SE3       29.98S
MANASSAS*      FAIR      67  66  97 CALM      29.98S
LEESBURG*      FAIR      66  64  94 CALM      29.99S
GAITHERSBURG*  FAIR      65  64  97 CALM      29.99S
FT BELVOIR     FAIR      66  66 100 CALM      29.97S FOG
QUANTICO       FAIR      71  69  93 MISG      29.98R
ANDREWS AFB    FAIR      71  65  82 W6        29.96F
COLLEGE PARK*  FAIR      67  65  94 CALM      29.96S

...CENTRAL VIRGINIA...

CITY           SKY/WX    TMP DP  RH WIND       PRES   REMARKS
CULPEPER*      FAIR      67  66  95 CALM      30.00S FOG
CHARLOTTESVILL FAIR      67  63  87 CALM      30.01F
WARRENTON*       N/A     67  64  91 CALM      29.98S FOG
ORANGE*        FAIR      68  64  88 CALM      30.00R
GORDONSVILLE*  FAIR      66  66 100 CALM      30.00R
STAFFORD*      FAIR      68  68 100 CALM      30.02S
FREDERICKSBRG* FAIR      68  68 100 CALM      29.97S
LOUISA*        FOG       62  62 100 CALM      30.04S VSB 1/2
ASHLAND        FOG       67  67 100 CALM      30.00R VSB 1/2
RICHMOND       FAIR      69  67  93 CALM      29.98F FOG

...NORTHEAST/CENTRAL MARYLAND...

CITY           SKY/WX    TMP DP  RH WIND       PRES   REMARKS
BWI AIRPORT    FAIR      70  65  84 W8        29.95S
ANNAPOLIS      FAIR      74  68  81 NW5       29.95S
MARTIN AIRPORT FAIR      72  68  88 SW6       29.95S
WESTMINSTER*   FAIR      68  63  83 CALM      29.98R
FORT MEADE*    FAIR      64  63  94 CALM      29.99R

...SOUTHERN MARYLAND...

CITY           SKY/WX    TMP DP  RH WIND       PRES   REMARKS
PATUXENT RIVER FAIR      75  68  78 W6        29.95F
ST MARYS CITY  FAIR      72  69  90 CALM      29.95S
LEONARDTOWN*     N/A     70  68  94 W3        29.98F

...MARYLAND EASTERN SHORE...

CITY           SKY/WX    TMP DP  RH WIND       PRES   REMARKS
SALISBURY      FAIR      70  70 100 CALM      29.95S
CAMBRIDGE*     CLEAR     70  68  94 CALM      29.95S
OCEAN CITY     FAIR      72  68  87 W5        29.95S
BAY BRIDGE AP* FAIR      75  66  73 W12G20    29.95S
EASTON*        FAIR      74  67  78 NW3       29.99S

...SHENANDOAH VALLEY...

CITY           SKY/WX    TMP DP  RH WIND       PRES   REMARKS
MARTINSBURG    FAIR      65  64  97 CALM      29.98S
HAGERSTOWN APT FAIR      68  65  90 E3        29.99S
STAUNTON*      FOG       60  59  99 CALM      30.08R VSB 1/2
WINCHESTER*    FAIR      64  63  94 SW6       30.02S
FRONT ROYAL*   FAIR      64  64 100 S6        30.00F
LURAY*         FAIR      64  63  94 S3        30.03S
NEW MARKET*    FAIR      63  62  96 CALM      30.02F
WAYNESBORO*    FAIR      62  61  99 SW3       30.07R

...APPALACHIANS...

CITY           SKY/WX    TMP DP  RH WIND       PRES   REMARKS
PETERSBURG WV* FAIR      60  60  99 CALM      30.03S FOG
CUMBERLAND*    CLOUDY    66  66 100 CALM      30.06S VSB<1/4
OAKLAND*       FAIR      61  61 100 W7        30.10F
HOT SPRINGS*   FAIR      62  62  97 W7        30.18S
ELKINS         FAIR      57  56  96 CALM      30.10S FOG
BEDFORD PA*    FOG       60  60  97 CALM      30.02S VSB 1/4
JOHNSTOWN      FAIR      64  62  93 W7        30.05S
ALTOONA        FAIR      64  61  90 SW5       30.02S FOG

...SOUTHERN PENNSYLVANIA/DELAWARE...

CITY           SKY/WX    TMP DP  RH WIND       PRES   REMARKS
YORK           FAIR      69  64  84 CALM      29.96R
WILMINGTON     MOCLDY    71  66  84 W6        29.92S

...MARINE OBSERVATIONS...

STATION/POSITION TIME  TEMP    WIND        PRES
                       AIR SEA DIR/SP/G
                 (UTC) (F)     (DEG/KT/KT) (MB)
THOMAS PT LIGHT  0900   74 81  270/ 13/ 14 1015.0S
COVE POINT       0836   74     280/  7/ 10 1015.0F
BALT KEY BRIDGE  0836   73     250/  8/ 10 1013.9R
LEWISETTA        0836   74 83  260/  6/  7 1014.6R
SOLOMONS ISLAND  0836   75 83  330/  3/  6 1014.3F
PINEY POINT      0836          280/  7/  8   N/A





USA.gov is the U.S. government's official web portal to all federal, state and local government web resources and services.